Location: Baia Mare
(47.6567°N, 23.5850°E)
Time: 13:47:09
(UTC+03:00)

ISS - Pass Details

Date: 19 July 2019
Orbit: 409 x 418 km, 51.6° (Epoch: 21 July)

Event Time Altitude Azimuth Distance (km) Brightness Sun altitude
Rises 03:18:02 0° 293° (WNW) 2,348 0.0 -17.4°
Reaches altitude 10° 03:20:08 10° 293° (WNW) 1,482 -1.0 -17.2°
Maximum altitude 03:23:27 80° 207° (SSW) 422 -4.0 -17.0°
Drops below altitude 10° 03:26:45 10° 120° (ESE) 1,472 -1.0 -16.7°
Sets 03:28:50 0° 119° (ESE) 2,330 0.0 -16.6°
